Location: Kawakawa
(35.3830°S, 174.0670°E)
Time: 02:12:08
(UTC+12:00)

Cosmos 2237 Rocket - Pass Details

Date: 24 January 2019
Orbit: 834 x 850 km, 71.0° (Epoch: 20 April)

Event Time Altitude Azimuth Distance (km) Brightness Sun altitude
Exits shadow 23:52:13 24° 125° (SE) 1,693 3.8 -30.1°
Drops below altitude 10° 23:54:44 10° 142° (SE) 2,489 4.9 -30.4°
Sets 23:57:20 0° 149° (SSE) 3,429 5.8 -30.6°
